Flag for Namibia Weather past 2 weeks in Walvis Bay, Namibia

Now
63 °F

Mild.


Feels Like: 63 °F
Forecast: 54 / 64 °F
Wind: 9 mph from Southwest

Location: Walvis Bay

Current Time: Jul 25, 2014 at 1:12:04 PM

Latest Report: Jul 25, 2014 at 12:00 PM


Visibility: N/A

Pressure: 30.27 "Hg

Humidity: 59%

Dew point: 48 °F

Location of Walvis BayLocation

Historic Weather in Walvis Bay — Graph

°F

Walvis Bay temperature yesterday

Maximum temperature yesterday: 63 °F (at 1:00 PM)
Minimum temperature yesterday: 48 °F (at 11:00 PM)
Average temperature yesterday: 55 °F

Past Weeks' High & Low Weather Summary

 TemperatureHumidityPressure
High77 °F (Jul 23, 3:00 PM)100% (Jul 11, 6:00 AM)30.27 "Hg (Jul 11, 6:00 AM)
Low39 °F (Jul 13, 4:00 AM)28% (Jul 23, 3:00 PM)29.98 "Hg (Jul 23, 3:00 PM)
Average53 °F76%30.13 "Hg
* Reported Jul 10 12:00 Noon — Jul 25 12:00 Noon, Walvis Bay, Weather by CustomWeather, © 2014

Note: Actual official high and low records may vary slightly from our data, if they occured in-between our weather recording intervals... More about our weather records

Advertising

Walvis Bay weather history for previous 24 hours

 ConditionsComfort  
Time TempWeatherWind HumidityBarometerVisibility
12:00 PM
Jul 25
63 °FMild.9 mph59%30.27 "HgN/A
11:00 AM61 °FCool.5 mph68%30.27 "HgN/A
9:00 AM54 °FOvercast.5 mph82%30.27 "HgN/A
8:00 AM52 °FPartly sunny.2 mph88%30.27 "HgN/A
7:00 AM52 °FOvercast.2 mph82%30.24 "HgN/A
6:00 AM52 °FOvercast.1 mph82%30.24 "HgN/A
5:00 AM52 °FOvercast.7 mph82%30.21 "HgN/A
4:00 AM50 °FCool.9 mph88%30.24 "HgN/A
3:00 AM48 °FCool.8 mph94%30.24 "HgN/A
2:00 AM48 °FCool.8 mph87%30.24 "HgN/A
1:00 AM46 °FCool.5 mph87%30.24 "HgN/A
12:00 AM46 °FCool.2 mph82%30.24 "HgN/A
11:00 PM
Jul 24
48 °FCool.5 mph82%30.24 "HgN/A
10:00 PM50 °FCool.2 mph82%30.21 "HgN/A
9:00 PM52 °FCool.1 mph82%30.21 "HgN/A
8:00 PM52 °FCool.5 mph77%30.18 "HgN/A
7:00 PM54 °FCool.7 mph77%30.15 "HgN/A
6:00 PM55 °FCool.13 mph72%30.12 "HgN/A
5:00 PM59 °FClear.9 mph63%30.12 "Hg10 mi
4:00 PM59 °FSunny.9 mph63%30.12 "Hg10 mi
3:00 PM59 °FCool.12 mph63%30.12 "HgN/A
2:00 PM63 °FMild.8 mph56%30.15 "HgN/A
1:00 PM63 °FSunny.2 mph56%30.15 "Hg10 mi
Weather by CustomWeather, © 2014

See weather overviewHow to use our weather pages